Weather History for Wadesboro, NC

Change the Weather History Date:

Monday, January 28, 2013

  Actual Average (KCLT) Record (KCLT)
Temperature  
Mean Temperature 42 °F 41 °F  
Max Temperature 51 °F 52 °F 79 °F (1944)
Min Temperature 32 °F 30 °F 5 °F (1986)
Degree Days  
Heating Degree Days 24 24  
Month to date heating degree days 696  
Since 1 July heating degree days 2033  
Cooling Degree Days 0 0  
Month to date cooling degree days 0  
Year to date cooling degree days 0  
Moisture  
Dew Point 36 °F    
Average Humidity 79    
Maximum Humidity 99    
Minimum Humidity 64    
Precipitation  
Precipitation 0.00 in 0.11 in 1.27 in (1882)
Month to date precipitation 3.09  
Year to date precipitation 3.09  
Snow  
Snow 0.00 in 0.10 in 5.50 in (1899)
Month to date snowfall 1.9  
Since 1 July snowfall 2.3  
Snow Depth -    
Sea Level Pressure  
Sea Level Pressure 30.39 in    
Wind  
Wind Speed 0 mph (SSW)    
Max Wind Speed 5 mph    
Max Gust Speed -    
Visibility 7 miles    
Events Rain    
T = Trace of Precipitation, MM = Missing Value Source: NWS Daily Summary

Daily Weather History Graph

Daily Weather History Graph

Search for Another Location

Airport:

Trip Planner

Search our weather history database for the weather conditions in past years. The results will help you decide how hot, cold, wet, or windy it might be!

Date:

Astronomy

Jan. 28, 2013 Rise Set
Actual Time 7:21 AM EST 5:45 PM EST
Civil Twilight 6:54 AM EST 6:12 PM EST
Nautical Twilight 6:24 AM EST 6:42 PM EST
Astronomical Twilight 5:54 AM EST 7:12 PM EST
Moon 7:31 PM EST (1/28) 7:52 AM EST (1/28)
Length of Visible Light 11h 17m
Length of Day
10h 23m
Full, 98% of the Moon is Illuminated
Jan 28
Full
Feb 3
Last Quarter
Feb 10
New
Feb 17
First Quarter
Feb 25
Full

Hourly Weather History & Observations

Time (EST) Temp. Dew Point Humidity Pressure Visibility Wind Dir Wind Speed Gust Speed Precip Events Conditions
12:15 AM 36.7 °F 27.5 °F 69% 30.50 in 7.0 mi Calm Calm - N/A   Overcast
12:35 AM 36.7 °F 27.3 °F 69% 30.50 in 7.0 mi Calm Calm - N/A   Mostly Cloudy
12:55 AM 36.7 °F 27.7 °F 70% 30.49 in 7.0 mi Calm Calm - N/A   Scattered Clouds
1:15 AM 36.7 °F 27.5 °F 69% 30.49 in 7.0 mi Calm Calm - N/A   Scattered Clouds
1:35 AM 36.5 °F 28.0 °F 71% 30.48 in 7.0 mi Calm Calm - N/A Rain Light Rain
1:55 AM 36.5 °F 28.4 °F 72% 30.48 in 7.0 mi Calm Calm - N/A Rain Light Rain
2:15 AM 36.0 °F 30.0 °F 79% 30.48 in 5.0 mi Calm Calm - N/A Rain Light Rain
2:35 AM 35.6 °F 30.7 °F 82% 30.49 in 4.0 mi Calm Calm - N/A Rain Light Rain
2:55 AM 35.6 °F 31.5 °F 85% 30.49 in 5.0 mi Calm Calm - N/A Rain Light Rain
3:15 AM 35.1 °F 31.6 °F 87% 30.48 in 4.0 mi Calm Calm - N/A Rain Light Rain
3:35 AM 35.2 °F 32.5 °F 90% 30.48 in 2.5 mi Calm Calm - N/A Rain Light Rain
3:55 AM 35.1 °F 32.4 °F 90% 30.47 in 2.5 mi Calm Calm - N/A   Scattered Clouds
4:15 AM 34.7 °F 32.5 °F 92% 30.47 in 2.5 mi Calm Calm - N/A   Mostly Cloudy
4:35 AM 34.0 °F 32.0 °F 92% 30.46 in 1.8 mi Calm Calm - N/A   Mostly Cloudy
4:55 AM 33.8 °F 32.0 °F 93% 30.47 in 1.0 mi Calm Calm - N/A   Overcast
5:15 AM 33.1 °F 32.0 °F 96% 30.46 in 1.5 mi Calm Calm - N/A   Scattered Clouds
5:35 AM 32.9 °F 32.0 °F 96% 30.47 in 1.2 mi Calm Calm - N/A   Mist
5:55 AM 32.9 °F 32.0 °F 96% 30.46 in 1.8 mi Calm Calm - N/A   Mist
6:15 AM 32.4 °F 32.0 °F 99% 30.47 in 1.2 mi Calm Calm - N/A   Mist
6:35 AM 32.2 °F 31.6 °F 98% 30.47 in 1.0 mi Calm Calm - N/A   Mist
7:15 AM 33.1 °F 32.2 °F 96% 30.48 in 1.5 mi Calm Calm - N/A   Overcast
7:35 AM 33.6 °F 32.7 °F 96% 30.48 in 1.8 mi Calm Calm - N/A   Overcast
7:55 AM 33.8 °F 32.9 °F 96% 30.49 in 1.5 mi Calm Calm - N/A   Overcast
8:15 AM 34.3 °F 33.3 °F 96% 30.49 in 2.0 mi Calm Calm - N/A   Overcast
8:35 AM 35.1 °F 33.3 °F 93% 30.47 in 3.0 mi Calm Calm - N/A   Overcast
8:55 AM 36.1 °F 33.8 °F 91% 30.46 in 3.0 mi Calm Calm - N/A   Overcast
9:15 AM 37.8 °F 34.2 °F 87% 30.46 in 5.0 mi Calm Calm - N/A   Overcast
9:35 AM 39.0 °F 34.9 °F 85% 30.47 in 5.0 mi Calm Calm - N/A   Overcast
9:55 AM 39.7 °F 34.7 °F 82% 30.46 in 7.0 mi Calm Calm - N/A   Overcast
10:15 AM 40.8 °F 34.9 °F 79% 30.46 in 7.0 mi Calm Calm - N/A   Overcast
10:35 AM 41.4 °F 34.5 °F 77% 30.46 in 10.0 mi Calm Calm - N/A   Overcast
10:55 AM 42.8 °F 34.9 °F 74% 30.45 in 10.0 mi Calm Calm - N/A   Overcast
11:15 AM 43.9 °F 35.4 °F 72% 30.44 in 10.0 mi Calm Calm - N/A   Overcast
11:35 AM 46.4 °F 36.3 °F 68% 30.43 in 10.0 mi Calm Calm - N/A   Overcast
12:15 PM 46.0 °F 34.9 °F 65% 30.41 in 10.0 mi Calm Calm - N/A   Overcast
12:35 PM 46.6 °F 35.8 °F 66% 30.39 in 10.0 mi Calm Calm - N/A   Overcast
12:55 PM 46.4 °F 35.8 °F 67% 30.38 in 10.0 mi Calm Calm - N/A   Overcast
1:15 PM 46.8 °F 36.7 °F 68% 30.36 in 10.0 mi Calm Calm - N/A Rain Light Rain
1:35 PM 47.5 °F 35.8 °F 64% 30.35 in 10.0 mi Calm Calm - N/A   Overcast
1:55 PM 47.1 °F 36.7 °F 67% 30.34 in 10.0 mi Calm Calm - N/A   Light Drizzle
2:15 PM 46.6 °F 37.9 °F 72% 30.34 in 7.0 mi Calm Calm - N/A Rain Light Rain
2:35 PM 46.4 °F 39.0 °F 75% 30.33 in 10.0 mi Calm Calm - N/A   Overcast
2:55 PM 46.9 °F 39.6 °F 76% 30.33 in 10.0 mi Calm Calm - N/A   Overcast
3:15 PM 47.7 °F 39.4 °F 73% 30.32 in 10.0 mi Calm Calm - N/A   Overcast
3:35 PM 48.9 °F 39.7 °F 71% 30.31 in 10.0 mi Calm Calm - N/A   Overcast
3:55 PM 49.5 °F 39.6 °F 69% 30.31 in 10.0 mi SW 4.6 mph - N/A   Overcast
4:15 PM 50.2 °F 39.2 °F 66% 30.30 in 10.0 mi South 3.5 mph - N/A   Scattered Clouds
4:35 PM 50.2 °F 39.2 °F 66% 30.29 in 10.0 mi Calm Calm - N/A   Mostly Cloudy
4:55 PM 50.5 °F 39.6 °F 66% 30.29 in 10.0 mi Calm Calm - N/A   Overcast
5:15 PM 50.2 °F 39.9 °F 68% 30.29 in 10.0 mi Calm Calm - N/A   Overcast
5:35 PM 50.0 °F 40.3 °F 69% 30.29 in 10.0 mi Calm Calm - N/A   Overcast
5:55 PM 49.3 °F 41.0 °F 73% 30.29 in 10.0 mi Calm Calm - N/A   Overcast
6:15 PM 48.9 °F 41.2 °F 75% 30.30 in 10.0 mi Calm Calm - N/A   Overcast
6:35 PM 49.3 °F 41.5 °F 75% 30.30 in 10.0 mi Calm Calm - N/A   Overcast
6:55 PM 49.1 °F 41.9 °F 76% 30.30 in 10.0 mi Calm Calm - N/A   Overcast
7:15 PM 48.7 °F 42.6 °F 79% 30.30 in 10.0 mi Calm Calm - N/A   Overcast
7:35 PM 48.6 °F 42.8 °F 80% 30.30 in 10.0 mi Calm Calm - N/A   Overcast
7:55 PM 49.6 °F 43.0 °F 78% 30.29 in 10.0 mi Calm Calm - N/A   Overcast
8:15 PM 50.2 °F 43.2 °F 77% 30.29 in 10.0 mi Calm Calm - N/A   Overcast
8:35 PM 50.0 °F 43.7 °F 79% 30.29 in 10.0 mi SSW 3.5 mph - N/A   Overcast
8:55 PM 50.5 °F 43.7 °F 77% 30.29 in 10.0 mi SSW 4.6 mph - N/A   Overcast
9:15 PM 51.1 °F 43.7 °F 76% 30.28 in 10.0 mi South 4.6 mph - N/A   Overcast
9:35 PM 50.9 °F 43.3 °F 75% 30.28 in 10.0 mi SSW 3.5 mph - N/A   Overcast
9:55 PM 50.4 °F 43.2 °F 76% 30.28 in 10.0 mi SSW 3.5 mph - N/A   Scattered Clouds
10:15 PM 49.1 °F 42.8 °F 79% 30.28 in 10.0 mi SSW 3.5 mph - N/A   Clear
10:35 PM 48.7 °F 42.8 °F 80% 30.27 in 7.0 mi South 3.5 mph - N/A   Clear
10:55 PM 48.2 °F 42.6 °F 81% 30.27 in 7.0 mi Calm Calm - N/A   Clear
11:15 PM 47.3 °F 42.4 °F 83% 30.27 in 7.0 mi Calm Calm - N/A   Clear
11:35 PM 46.6 °F 42.4 °F 85% 30.27 in 7.0 mi South 3.5 mph - N/A   Clear
11:55 PM 46.0 °F 42.1 °F 86% 30.27 in 7.0 mi Calm Calm - N/A   Clear